DLH7MA EDDM-EGLL

Flight info

Callsign DLH7MA
Flight time N/A
Altitude 34000
Route GIVMI6Q GIVMI Y101 INBED DCT REKDI DCT LOHRE DCT ADKUV DCT DENUT L608 LOGAN
Aircraft A388/J-SADE2E3FGHIJ3J4J5M1RWXY/LB1D1

Departure

Time 2026-05-06 11:03
Airport Munich Airport (EDDM)

Arrival

Time N/A
Airport London Heathrow Airport (EGLL)
Time Latitude Longitude Altitude Speed Heading
2026-05-06 10:12 48.35244 11.80045 1480 ft 0 kts 263°
2026-05-06 10:37 48.35261 11.80031 1490 ft 0 kts 263°
2026-05-06 10:37 48.35244 11.80045 1490 ft 0 kts 263°
2026-05-06 10:48 48.35247 11.80072 1484 ft 4 kts 263°
2026-05-06 10:48 48.35249 11.80110 1479 ft 2 kts 263°
2026-05-06 10:48 48.35254 11.80142 1475 ft 4 kts 247°
2026-05-06 10:49 48.35266 11.80167 1475 ft 4 kts 212°
2026-05-06 10:49 48.35283 11.80173 1475 ft 3 kts 173°
2026-05-06 10:49 48.35308 11.80168 1475 ft 4 kts 173°
2026-05-06 10:49 48.35326 11.80165 1475 ft 1 kts 173°
2026-05-06 10:53 48.35325 11.80166 1475 ft 2 kts 173°
2026-05-06 10:53 48.35290 11.80172 1484 ft 8 kts 173°
2026-05-06 10:53 48.35217 11.80185 1479 ft 12 kts 173°
2026-05-06 10:53 48.35175 11.80192 1478 ft 2 kts 178°
2026-05-06 10:54 48.35141 11.80187 1481 ft 5 kts 199°
2026-05-06 10:54 48.35139 11.80186 1481 ft 1 kts 209°
2026-05-06 10:54 48.35130 11.80163 1475 ft 7 kts 259°
2026-05-06 10:54 48.35128 11.80053 1479 ft 13 kts 265°
2026-05-06 10:55 48.35117 11.79914 1483 ft 14 kts 263°
2026-05-06 10:55 48.35105 11.79750 1490 ft 17 kts 263°
2026-05-06 10:55 48.35094 11.79615 1477 ft 10 kts 263°
2026-05-06 10:55 48.35117 11.79527 1477 ft 10 kts 330°
2026-05-06 10:56 48.35195 11.79499 1478 ft 13 kts 353°
2026-05-06 10:56 48.35298 11.79481 1475 ft 16 kts 354°
2026-05-06 10:56 48.35416 11.79461 1477 ft 18 kts 353°
2026-05-06 10:56 48.35544 11.79438 1486 ft 19 kts 353°
2026-05-06 10:57 48.35676 11.79415 1476 ft 20 kts 353°
2026-05-06 10:57 48.35809 11.79393 1483 ft 10 kts 353°
2026-05-06 10:57 48.35828 11.79389 1482 ft 5 kts 353°
2026-05-06 10:57 48.35876 11.79381 1486 ft 9 kts 349°
2026-05-06 10:58 48.35943 11.79344 1484 ft 12 kts 347°
2026-05-06 10:58 48.36035 11.79324 1476 ft 15 kts 352°
2026-05-06 10:58 48.36062 11.79318 1485 ft 0 kts 350°
2026-05-06 10:58 48.36086 11.79243 1482 ft 15 kts 270°
2026-05-06 10:59 48.36074 11.79069 1485 ft 19 kts 263°
2026-05-06 10:59 48.36058 11.78860 1481 ft 22 kts 263°
2026-05-06 10:59 48.36043 11.78669 1490 ft 18 kts 263°
2026-05-06 10:59 48.36028 11.78469 1486 ft 21 kts 263°
2026-05-06 11:00 48.36010 11.78236 1490 ft 23 kts 263°
2026-05-06 11:00 48.35991 11.77990 1477 ft 25 kts 263°
2026-05-06 11:00 48.35971 11.77726 1490 ft 26 kts 263°
2026-05-06 11:00 48.35950 11.77449 1479 ft 27 kts 263°
2026-05-06 11:01 48.35929 11.77183 1489 ft 20 kts 263°
2026-05-06 11:01 48.35915 11.76995 1486 ft 15 kts 264°
2026-05-06 11:01 48.35956 11.76849 1478 ft 16 kts 325°
2026-05-06 11:01 48.36058 11.76813 1487 ft 15 kts 353°
2026-05-06 11:02 48.36110 11.76803 1480 ft 6 kts 353°
2026-05-06 11:02 48.36164 11.76794 1481 ft 10 kts 353°
2026-05-06 11:02 48.36244 11.76789 1487 ft 12 kts
2026-05-06 11:02 48.36283 11.76859 1480 ft 10 kts 81°
2026-05-06 11:03 48.36303 11.77104 1487 ft 58 kts 83°
2026-05-06 11:03 48.36380 11.78119 1479 ft 132 kts 83°
2026-05-06 11:03 48.36496 11.79692 1715 ft 158 kts 83°
2026-05-06 11:03 48.36636 11.81354 2354 ft 161 kts 82°
2026-05-06 11:04 48.36764 11.83008 3066 ft 159 kts 84°
2026-05-06 11:04 48.36890 11.84708 3524 ft 171 kts 84°
2026-05-06 11:04 48.37316 11.86471 3909 ft 193 kts 56°
2026-05-06 11:04 48.38420 11.87767 4132 ft 223 kts 21°
2026-05-06 11:05 48.40044 11.87961 4626 ft 248 kts 352°
2026-05-06 11:05 48.41717 11.86959 5143 ft 273 kts 323°
2026-05-06 11:05 48.43052 11.84877 6027 ft 279 kts 303°
2026-05-06 11:05 48.44189 11.82503 7010 ft 282 kts 306°
2026-05-06 11:06 48.45426 11.80180 7970 ft 285 kts 307°
2026-05-06 11:06 48.46716 11.77888 8944 ft 289 kts 308°
2026-05-06 11:06 48.48020 11.75608 9893 ft 292 kts 307°
2026-05-06 11:06 48.49351 11.73282 10776 ft 295 kts 307°
2026-05-06 11:07 48.50699 11.70916 11580 ft 300 kts 307°
2026-05-06 11:07 48.52063 11.68515 12445 ft 303 kts 306°
2026-05-06 11:07 48.53418 11.66127 13266 ft 307 kts 306°
2026-05-06 11:07 48.54817 11.63660 14032 ft 310 kts 306°
2026-05-06 11:08 48.56228 11.61165 14750 ft 314 kts 306°
2026-05-06 11:08 48.57656 11.58635 15405 ft 320 kts 306°
2026-05-06 11:08 48.59143 11.55988 15597 ft 341 kts 306°
2026-05-06 11:08 48.60720 11.53179 15796 ft 360 kts 306°
2026-05-06 11:09 48.62380 11.50228 16197 ft 372 kts 306°
2026-05-06 11:09 48.64068 11.47235 16867 ft 376 kts 306°
2026-05-06 11:09 48.65771 11.44214 17521 ft 380 kts 306°
2026-05-06 11:09 48.67492 11.41155 18152 ft 384 kts 306°
2026-05-06 11:10 48.69257 11.38093 18683 ft 389 kts 309°
2026-05-06 11:10 48.71285 11.35357 19407 ft 392 kts 318°